Location: ????? ???????
(25.7275°N, 32.5929°E)
Time: 10:47:17
(UTC+00:00)

ATLAS CENTAUR R/B - Pass Details

Date: 02 March 2021
Orbit: 475 x 670 km, 64.7° (Epoch: 30 March)

Event Time Altitude Azimuth Distance (km) Brightness Sun altitude
Rises 16:34:59 0° 214° (SW) 2,563 5.3 -10.5°
Reaches altitude 10° 16:37:12 10° 220° (SW) 1,664 4.4 -11.0°
Maximum altitude 16:40:47 52° 297° (WNW) 602 1.9 -11.8°
Drops below altitude 10° 16:44:20 10° 15° (NNE) 1,639 3.6 -12.6°
Sets 16:46:30 0° 20° (NNE) 2,520 4.5 -13.1°
